GFSSE_500_rhum_207.txt.gz
RH
32 20 16 18 17 20 22 22 26 29 32 35 42 42 41 46 37 31 24 35 35 39 36 32 30 24 20 19 21 21 24 26 28 22 21 17 16 18 29 34 28 30 44
31 21 16 16 15 21 29 31 35 41 41 39 44 47 40 48 42 38 32 28 34 38 41 39 34 31 24 18 20 21 22 24 27 27 24 21 17 16 19 19 24 32 36
26 18 15 13 15 26 32 37 41 48 48 45 47 49 42 46 51 41 40 35 31 34 41 42 38 32 35 23 18 20 23 24 24 28 27 25 23 19 17 17 17 15 20
23 17 13 14 17 24 29 36 38 48 52 50 48 50 42 51 59 46 44 41 35 37 39 42 41 38 36 37 26 20 25 27 24 25 27 27 26 24 20 16 15 17 18
21 14 14 19 21 26 34 36 41 48 52 50 48 52 45 55 60 48 47 48 43 43 42 41 41 41 39 38 39 29 22 26 27 25 24 27 28 26 25 23 19 16 18
14 16 17 18 21 25 36 33 40 47 49 46 51 54 50 54 56 46 46 47 45 45 47 43 38 41 42 39 36 38 35 25 26 28 26 24 27 30 27 25 24 21 18
16 19 17 19 21 31 37 33 34 40 41 41 52 54 53 51 50 42 44 43 47 51 49 49 41 36 39 41 38 35 35 38 31 26 27 26 25 29 34 30 25 25 24
27 24 22 21 25 38 36 35 34 32 36 37 46 49 52 50 49 42 36 31 37 35 42 44 45 38 36 38 38 34 28 26 32 35 31 28 26 27 34 36 30 27 29
28 26 25 24 33 41 35 37 34 30 32 33 39 45 49 47 38 30 28 24 28 32 38 41 41 40 39 36 34 36 38 33 32 34 32 35 31 27 28 33 36 34 33
26 29 31 27 42 42 36 38 36 33 32 30 35 42 46 36 29 24 24 21 29 31 36 41 42 42 40 38 35 35 33 33 35 31 30 33 35 33 31 29 32 31 34
25 27 36 32 45 43 38 34 34 32 30 31 31 36 35 32 26 24 24 18 21 28 27 26 30 21 27 31 30 27 28 26 24 30 34 32 30 32 36 34 34 38 39
38 33 37 38 43 44 37 32 28 28 30 31 31 31 26 24 27 27 25 24 20 21 23 20 26 34 27 19 20 24 25 23 23 19 22 26 31 33 32 36 39 42 47
38 36 41 42 44 42 37 32 29 30 31 31 29 29 26 25 28 29 26 23 19 17 16 16 11 14 15 21 28 22 20 19 13 12 12 12 16 22 31 31 36 42 49
40 36 39 41 46 44 37 32 27 28 29 29 27 26 25 26 29 26 24 20 17 14 11 10 9 9 9 8 11 16 22 24 19 13 8 7 7 9 13 21 28 34 41
38 38 39 43 48 48 38 32 26 24 24 23 22 20 20 21 23 22 19 17 14 13 10 9 7 7 8 7 8 8 8 10 15 21 22 17 10 8 8 10 20 28 38
40 40 42 46 48 41 32 29 28 26 24 22 21 21 20 20 19 20 19 18 16 15 14 12 13 13 15 19 20 20 19 18 12 8 9 15 19 17 10 10 11 16 21
44 42 45 50 46 34 30 28 26 27 25 22 20 19 19 18 17 17 16 16 17 18 18 17 16 14 14 15 20 25 25 28 34 34 29 17 10 10 18 20 13 12 17
46 43 51 51 40 32 29 28 27 28 26 22 20 19 18 18 19 20 21 20 19 18 20 21 22 20 21 22 20 18 18 23 30 39 39 38 35 40 32 12 26 28 14
48 50 56 49 37 33 32 28 25 25 24 22 20 20 21 23 23 22 20 22 27 30 33 33 36 34 33 31 30 29 29 29 29 32 33 40 49 44 40 25 11 21 33
52 58 56 43 35 32 30 25 23 24 25 22 23 22 22 21 21 20 23 29 30 28 31 34 34 37 37 36 37 36 43 39 36 35 38 53 50 54 59 54 41 19 24
55 57 50 41 36 32 27 24 24 23 22 21 21 22 23 24 23 23 25 26 25 24 26 30 31 35 38 45 43 42 40 40 42 45 46 51 59 64 68 81 81 49 33
50 59 47 41 37 31 24 25 26 26 28 30 32 30 26 24 27 30 29 30 36 36 37 42 41 40 42 48 54 53 46 41 39 37 39 41 43 50 50 62 94 97 90
48 56 45 39 34 30 29 30 30 34 39 41 45 43 35 34 39 43 45 49 48 43 39 38 37 38 40 43 49 49 44 39 38 41 42 46 48 51 69 100 61 97 97
56 58 47 40 35 33 32 33 36 40 40 47 51 49 45 47 52 52 51 46 40 38 36 37 41 44 41 35 32 38 46 50 50 44 45 51 55 53 51 48 47 97 98
56 66 52 46 39 34 34 36 42 46 52 51 46 45 46 52 52 49 48 49 49 46 46 48 51 49 49 46 45 42 42 48 47 43 39 37 39 35 30 31 30 50 49
52 65 64 53 48 45 53 55 56 57 53 51 50 51 52 46 46 50 48 46 42 44 48 53 60 58 50 42 39 42 38 34 28 21 18 17 16 15 13 12 15 22 28

GFSSE_500_rhum_210.txt.gz
RH
26 21 15 14 13 15 17 27 36 41 45 47 44 48 42 43 47 38 34 28 35 36 39 36 33 30 26 22 22 22 22 24 28 26 22 19 16 17 19 24 28 34 40
24 20 16 13 14 17 20 26 34 39 43 49 47 49 45 44 50 47 39 36 32 35 39 40 38 34 35 27 23 23 22 24 24 27 27 25 22 17 17 17 19 22 28
21 20 15 14 16 18 22 26 38 38 45 50 48 51 46 45 56 55 43 42 39 36 39 42 41 37 34 36 28 20 21 24 25 25 27 27 26 24 19 18 16 14 14
17 16 15 16 17 18 20 29 38 36 44 48 45 50 47 48 59 53 45 48 44 40 40 41 41 40 37 37 40 29 20 22 25 25 24 26 28 27 25 22 17 15 16
15 17 19 23 20 18 21 33 36 34 41 43 40 48 48 47 56 54 46 49 49 44 45 43 41 39 38 36 34 38 37 23 23 26 26 25 25 28 28 25 24 21 17
19 24 28 28 26 24 26 35 34 32 36 38 35 47 48 47 45 45 45 45 46 44 47 47 45 39 37 36 34 30 30 34 33 26 26 27 26 25 30 32 27 25 24
27 32 29 27 26 24 26 39 33 33 32 34 32 45 44 41 39 40 33 36 37 42 43 44 46 43 36 36 34 34 32 32 35 37 32 28 27 26 27 34 36 30 26
35 35 30 24 27 26 32 40 35 34 30 32 31 41 37 35 33 28 23 27 33 32 36 42 42 43 38 36 36 35 35 34 31 29 28 28 30 30 27 27 32 36 34
32 31 31 32 28 29 39 39 34 35 32 31 33 36 39 32 27 24 20 19 29 32 34 39 42 43 41 36 32 28 26 24 24 26 28 28 25 26 30 30 28 30 32
29 32 33 37 32 34 42 39 33 33 33 31 31 32 35 29 24 23 20 19 18 26 30 32 35 32 33 33 27 20 16 15 15 16 17 17 20 24 25 26 29 32 33
23 34 33 39 36 36 41 40 34 31 29 31 31 32 32 29 24 20 19 18 16 16 19 23 22 24 22 18 16 14 13 9 7 6 7 8 9 10 15 18 20 23 29
33 31 33 37 36 37 41 40 33 30 28 30 29 30 29 27 22 22 20 16 15 13 12 12 12 14 16 17 17 11 10 9 8 7 6 6 7 6 6 7 9 13 16
33 27 32 37 39 38 43 38 33 30 28 26 27 27 26 24 20 19 18 16 13 10 9 8 8 6 7 9 9 9 11 14 13 9 7 7 7 7 8 8 6 7 10
32 35 34 37 40 39 45 42 35 31 26 23 24 23 20 19 18 18 17 17 14 12 10 10 11 10 10 9 8 8 7 7 7 7 7 10 9 8 8 8 9 9 9
32 36 34 39 40 40 47 46 38 31 25 24 23 22 21 20 19 19 17 15 14 13 12 11 11 13 14 15 14 14 16 17 20 22 20 19 16 10 9 9 10 10 10
30 34 36 40 42 42 48 40 35 30 25 25 26 24 21 19 19 17 16 15 14 14 13 13 14 15 15 14 15 16 17 18 19 20 22 21 26 26 29 28 16 10 10
29 28 34 42 43 44 49 35 33 30 28 27 26 22 19 17 16 15 15 14 14 15 16 16 15 14 14 15 18 21 22 26 29 30 31 30 28 30 31 37 38 31 25
26 26 31 41 46 46 49 34 30 29 28 26 25 23 20 18 17 18 19 20 20 20 18 16 15 14 14 14 15 17 20 24 26 29 31 36 38 36 37 35 40 47 42
20 24 29 42 51 52 50 35 32 30 28 26 23 22 21 21 21 21 21 21 21 19 17 17 17 17 19 20 21 22 24 26 31 39 44 50 54 55 50 46 39 44 56
20 23 26 40 52 58 52 36 34 32 26 24 22 24 23 22 23 23 21 19 18 19 21 22 22 21 27 31 29 28 28 30 35 36 41 47 50 53 55 55 51 48 52
20 20 22 37 45 57 52 38 35 31 26 24 24 23 24 23 23 25 26 24 24 25 27 28 30 35 37 36 33 34 32 34 36 39 37 38 39 48 53 56 60 55 56
20 22 23 31 43 50 49 41 38 31 26 25 25 26 30 35 36 36 34 30 30 31 37 41 42 38 36 37 37 32 24 25 29 33 37 44 42 46 46 52 60 57 54
24 27 24 35 52 53 53 44 38 33 30 30 31 34 37 41 45 46 45 41 40 43 46 45 42 41 36 34 30 29 30 31 34 33 39 40 44 44 50 50 62 65 60
29 28 26 31 47 61 53 45 37 33 31 33 34 37 41 43 49 49 52 53 49 44 40 40 39 35 35 34 34 35 34 39 37 31 36 33 48 51 51 49 48 46 49
30 26 26 35 50 62 62 50 40 35 35 36 36 43 46 51 53 55 55 51 49 46 41 39 37 35 38 39 40 40 40 38 41 46 29 42 40 41 35 28 24 24 23
29 27 32 38 50 67 66 58 52 42 39 41 44 46 48 55 60 63 58 51 47 45 43 39 40 41 42 44 46 47 46 40 38 35 35 30 22 20 21 17 15 14 12

GFSSE_500_rhum_216.txt.gz
RH
20 14 17 20 28 27 27 25 26 35 34 40 43 40 41 43 46 46 45 40 37 35 36 39 40 36 30 31 24 22 24 26 24 26 27 26 25 21 18 21 14 14 16
16 14 17 26 31 28 25 26 24 33 30 36 41 36 39 45 50 50 43 41 39 36 38 38 39 38 34 28 30 30 24 26 27 26 25 26 27 26 24 20 21 15 15
15 15 19 31 31 29 25 26 24 30 30 32 37 31 38 44 47 44 39 40 38 37 40 37 39 37 34 28 24 22 30 28 26 27 28 26 25 26 28 26 24 21 22
15 15 22 30 31 32 30 27 25 29 30 27 31 25 35 42 39 36 35 36 35 32 35 33 35 37 30 30 27 22 20 24 28 28 27 28 28 27 26 30 29 26 24
15 15 22 28 26 30 32 28 26 30 30 25 26 23 31 38 32 28 31 31 30 29 29 31 31 36 34 31 31 29 22 19 19 19 21 25 26 28 28 27 30 33 30
15 15 16 24 28 30 33 31 27 29 31 26 26 23 28 34 33 24 25 26 22 23 26 30 32 33 32 29 28 23 21 19 17 18 19 18 20 22 24 25 27 28 30
15 15 14 19 29 29 33 32 28 30 32 29 26 24 24 31 30 22 22 25 23 23 27 32 34 33 26 18 18 18 14 12 9 8 8 7 8 7 8 8 11 16 20
15 15 13 16 28 29 32 32 30 32 33 30 28 26 22 26 31 24 21 24 20 23 27 28 25 23 17 14 12 10 8 6 7 5 5 5 4 5 5 5 5 5 6
14 15 13 15 27 25 31 30 30 31 33 30 29 26 23 23 31 31 21 17 18 21 24 21 17 15 10 8 7 7 6 6 5 5 5 4 4 4 5 5 5 5 5
15 15 14 14 20 20 30 30 29 30 33 31 28 26 24 21 24 32 23 16 16 17 18 16 15 14 12 8 7 6 5 5 5 6 6 6 6 6 6 6 5 6 5
14 15 14 14 15 19 28 30 29 29 34 34 29 25 22 20 19 26 27 17 14 14 14 13 13 12 10 8 7 6 6 5 5 5 6 6 7 7 8 8 9 9 9
14 15 14 14 14 21 26 29 30 30 33 35 30 25 23 21 18 22 26 20 17 14 14 12 8 8 8 7 6 5 5 5 6 7 7 8 10 11 10 10 10 10 11
13 16 15 15 14 19 23 31 30 30 34 35 31 28 25 22 20 27 28 23 21 16 13 12 9 7 6 5 5 6 7 7 8 8 9 10 11 12 14 15 14 14 15
6 11 16 16 14 14 18 21 34 31 35 38 34 30 30 32 35 35 36 38 35 17 16 13 11 8 7 7 7 8 8 9 10 10 10 12 13 13 14 17 18 20 22
10 8 15 16 15 14 16 17 31 35 37 43 41 33 38 42 44 50 42 47 45 55 47 37 18 12 11 11 12 12 13 13 12 12 12 16 17 19 22 24 25 26 28
12 9 14 17 15 15 17 19 28 37 39 42 38 32 26 31 40 48 39 30 32 38 40 40 45 44 16 14 14 14 14 14 14 15 16 17 22 28 31 32 34 38 40
14 11 15 18 16 15 26 24 18 35 42 45 38 30 26 26 31 36 32 38 30 31 29 33 29 31 18 16 17 17 17 17 17 18 19 24 29 31 32 38 42 39 46
13 12 14 18 18 16 17 28 19 23 36 46 41 31 28 26 27 25 27 29 29 29 35 34 37 27 23 17 17 15 17 21 24 27 29 31 32 32 35 40 43 49 50
13 13 13 17 18 17 17 19 19 24 25 39 47 35 29 28 28 28 25 24 25 30 37 23 25 25 17 16 20 23 26 28 30 31 31 29 31 35 36 32 38 44 47
12 15 12 17 18 16 17 18 18 23 25 28 45 47 34 31 30 28 26 25 27 25 27 23 25 20 24 27 27 28 29 31 32 32 30 29 32 38 40 40 38 35 34
12 16 14 17 18 16 18 18 18 21 24 25 37 52 46 35 32 29 25 25 27 28 27 23 23 29 31 33 31 30 29 36 37 39 38 39 43 47 44 43 43 42 38
12 13 16 16 18 16 17 18 18 24 29 30 26 37 54 46 38 34 32 27 27 27 25 26 34 35 37 42 38 32 30 34 39 36 36 38 41 41 40 40 42 40 32
12 15 16 15 18 16 17 18 19 24 31 36 36 31 38 57 52 43 35 30 31 32 31 36 37 38 40 43 43 39 38 39 36 39 39 37 30 26 26 29 25 24 24
15 16 14 16 17 17 17 18 20 24 29 34 34 35 40 51 64 58 46 36 36 37 37 36 36 38 36 38 48 56 55 49 38 26 38 43 40 36 39 22 16 15 15
14 15 15 15 17 18 17 19 20 24 27 31 31 39 39 47 60 79 66 51 42 39 40 40 39 38 39 44 52 61 57 58 60 49 31 37 36 36 21 16 13 10 12
15 14 16 16 18 18 19 20 20 22 26 28 32 41 42 41 58 74 81 80 64 56 49 43 43 46 54 59 67 60 61 58 53 52 46 42 31 20 14 11 13 13 12

GFSSE_500_rhum_219.txt.gz
RH
17 14 14 29 29 31 30 27 25 32 31 35 38 34 34 39 41 45 42 37 34 34 34 33 31 29 24 23 28 26 26 27 25 23 25 26 26 25 21 20 15 14 14
17 14 14 27 26 30 32 32 26 30 31 29 32 29 33 38 41 42 38 31 30 33 31 30 31 31 25 22 22 26 26 26 27 28 26 25 25 26 27 25 23 22 21
17 15 14 22 24 30 32 33 28 29 31 25 26 26 31 36 39 32 30 28 27 28 26 25 29 29 25 20 18 19 22 23 22 21 23 26 28 26 26 29 28 25 25
17 15 14 18 21 31 30 32 28 27 30 25 24 25 27 34 31 26 27 24 23 22 21 22 25 23 23 24 20 18 17 16 16 15 18 18 22 24 24 25 26 28 28
17 16 14 15 19 29 32 32 30 28 29 27 25 25 25 29 29 28 24 22 18 19 25 28 27 28 26 22 18 17 17 15 15 15 14 16 16 17 17 19 21 23 24
17 17 15 14 16 26 30 32 30 28 27 30 25 25 23 25 25 25 22 18 16 20 27 31 32 28 20 17 9 10 7 7 9 8 6 8 5 4 6 8 11 12 14
17 17 15 14 15 23 23 30 30 27 26 32 27 26 24 25 24 24 20 17 15 21 24 26 28 21 15 12 7 5 5 5 5 5 5 6 5 5 5 5 5 5 5
14 16 16 15 14 16 18 28 29 27 26 32 29 26 24 24 23 23 17 14 14 21 23 14 14 13 11 9 7 6 5 5 5 5 5 5 5 5 6 6 5 5 5
10 14 15 15 14 14 16 26 29 28 27 31 32 28 23 20 21 21 18 14 13 18 19 12 10 9 7 7 6 6 5 5 5 5 6 6 5 5 6 6 5 6 7
8 9 14 15 14 13 16 24 28 28 26 30 34 29 25 20 20 19 20 16 14 14 16 13 11 8 8 6 6 5 5 4 5 6 6 7 7 8 8 8 9 10 11
8 8 11 14 15 13 14 21 24 28 27 29 35 33 26 22 20 20 19 15 14 11 12 11 12 9 6 6 5 4 4 5 5 5 6 7 7 9 9 9 10 11 11
7 7 9 13 15 14 13 16 17 27 28 28 34 34 28 24 21 20 21 17 13 12 8 7 6 6 5 4 4 4 4 5 6 7 8 9 10 10 10 11 12 13 13
8 9 10 12 15 15 14 14 16 17 29 28 34 35 32 28 24 22 20 20 15 12 10 8 7 6 5 4 4 4 5 6 7 8 10 10 11 11 12 15 18 20 21
7 8 11 13 14 15 15 14 18 19 25 30 32 37 36 32 31 29 31 32 36 30 18 12 9 8 7 6 6 7 8 9 10 11 12 12 13 15 15 19 23 26 29
6 6 7 10 13 14 15 14 23 23 19 30 32 36 40 36 36 37 39 42 42 39 34 33 28 26 22 18 17 12 11 12 13 14 14 14 15 15 16 22 28 32 34
6 5 7 7 12 12 14 14 17 28 23 19 31 35 40 33 27 32 44 46 42 39 38 37 42 45 43 41 38 21 14 15 15 15 15 15 16 18 24 29 31 33 35
6 5 5 8 13 10 13 15 14 22 19 21 23 33 42 36 29 24 30 36 42 42 39 33 32 30 33 28 30 27 19 18 17 16 18 23 26 29 31 33 36 39 41
7 7 5 7 11 10 13 15 15 16 18 18 23 25 34 41 31 27 24 25 26 28 34 35 33 32 33 38 38 32 21 18 18 22 26 28 30 32 35 38 41 44 46
7 7 6 7 10 11 12 16 17 16 16 18 20 23 27 40 41 30 28 27 28 27 25 27 30 35 46 29 28 26 18 22 26 27 28 30 33 37 39 42 44 48 50
9 6 6 7 9 12 11 15 18 17 16 17 18 23 25 31 45 44 34 31 30 28 27 27 32 34 28 27 24 21 24 29 32 32 29 34 38 42 42 43 44 45 48
9 7 6 7 10 11 12 14 18 18 17 18 18 23 33 34 36 42 48 40 35 33 30 26 26 28 31 26 22 25 32 36 35 37 41 44 49 51 51 57 60 60 54
10 7 6 7 9 11 15 14 17 17 17 18 19 21 26 31 31 37 50 56 46 39 35 33 30 29 30 27 25 32 32 35 34 34 43 52 57 56 59 58 56 49 43
7 8 7 7 8 10 14 14 16 16 17 19 20 21 24 28 27 31 37 47 64 59 50 39 35 36 35 34 32 33 30 28 27 37 49 61 56 52 50 42 42 39 37
9 12 8 7 8 9 11 15 16 16 16 18 20 21 24 29 28 29 39 42 48 61 73 64 48 43 40 38 37 36 33 30 33 34 45 61 64 64 57 48 41 33 23
8 9 12 9 9 10 13 16 16 16 16 18 21 21 23 27 27 33 41 42 45 59 73 82 77 74 64 54 55 53 50 58 63 52 45 54 57 57 48 42 28 18 15
7 7 9 13 15 14 15 16 17 19 17 18 20 20 23 26 27 32 43 44 46 54 62 86 92 91 89 84 80 86 83 84 80 75 73 68 61 49 44 26 16 13 10

GFSSE_500_rhum_222.txt.gz
RH
18 15 14 19 24 32 30 33 26 28 30 24 30 28 30 35 33 35 32 28 26 28 24 26 23 21 18 22 27 26 26 27 25 24 21 21 24 24 21 18 19 18 17
18 16 14 15 20 30 30 33 28 27 31 25 28 25 27 32 30 27 25 21 22 22 21 23 22 17 15 15 17 21 23 24 22 21 20 22 22 24 25 23 22 25 24
17 17 15 14 16 27 31 32 31 26 30 27 24 24 22 33 29 23 20 19 18 18 19 20 16 12 10 11 13 14 14 17 18 20 21 22 22 21 22 24 24 24 23
14 17 16 14 15 21 26 30 31 26 28 29 25 24 23 29 29 22 18 17 17 21 23 23 18 17 15 13 13 12 12 13 15 17 17 18 19 19 19 17 19 20 19
11 15 17 15 14 15 24 23 30 28 27 30 27 25 24 27 32 25 18 15 16 22 28 28 23 21 18 16 14 8 8 13 12 10 11 8 8 8 10 12 12 13 14
10 12 16 16 15 15 16 17 28 29 26 29 29 26 24 24 27 24 18 14 14 20 30 31 27 20 16 9 6 5 5 5 5 5 4 5 5 5 5 5 5 5 6
9 10 15 16 16 15 15 17 26 28 26 27 30 28 25 24 25 23 19 13 14 15 18 28 26 17 10 5 5 5 5 5 5 5 5 5 5 6 6 6 5 5 5
8 9 12 16 15 15 14 16 24 28 26 25 30 30 27 24 26 27 19 13 13 16 13 16 20 13 6 5 5 5 5 5 5 5 5 5 6 6 7 7 6 7 8
8 9 10 14 15 15 14 14 20 26 28 24 26 32 29 25 22 26 25 14 12 14 11 9 13 8 5 5 5 5 5 4 5 6 7 7 8 8 8 8 8 9 10
9 9 8 12 15 15 15 14 14 18 28 26 24 32 32 28 22 22 25 19 12 13 11 8 9 7 6 5 5 6 4 4 5 5 6 6 7 8 8 9 9 9 10
9 9 8 8 12 15 15 15 13 16 21 28 26 29 34 31 25 22 21 21 14 12 12 8 8 8 7 6 5 5 4 4 4 5 6 7 7 8 8 8 9 10 12
8 8 9 8 9 13 16 16 14 17 20 27 27 27 32 32 28 25 23 21 18 13 11 7 7 8 7 5 4 4 4 4 6 6 7 8 9 10 10 10 10 12 16
7 8 9 9 9 12 16 16 14 20 23 22 30 28 31 34 32 29 25 21 20 17 12 10 7 5 4 4 4 4 4 5 6 8 9 10 11 12 12 12 14 16 19
7 8 9 10 10 9 13 14 15 14 24 22 22 31 32 37 35 32 31 25 24 21 16 12 11 8 7 6 6 7 6 7 8 9 11 12 14 14 14 15 15 15 23
7 7 9 11 9 8 9 14 15 14 18 23 20 23 31 37 41 38 33 30 32 39 35 34 29 18 13 12 12 12 11 12 12 11 13 13 14 15 14 15 16 23 30
6 7 7 9 10 9 8 12 14 15 15 16 20 22 25 29 38 38 31 29 42 44 48 46 50 49 50 48 47 34 38 38 22 15 16 16 16 15 17 22 27 30 34
4 4 5 6 8 9 9 11 13 15 16 14 17 20 22 23 28 39 35 29 26 34 42 44 43 36 41 46 46 39 44 42 37 25 21 19 19 19 24 28 31 33 35
4 4 5 5 7 9 9 10 12 15 18 15 14 18 20 20 24 31 41 35 30 28 28 27 31 36 42 39 39 40 41 42 44 35 25 22 22 25 28 30 33 36 41
4 5 5 4 5 7 9 10 11 14 17 18 15 16 18 21 26 27 32 44 40 32 31 31 30 30 29 32 33 34 41 44 33 32 26 23 28 32 37 43 50 51 51
4 4 5 5 5 6 9 10 10 14 16 18 18 17 17 19 26 32 33 31 38 48 42 35 35 32 29 27 27 35 33 28 29 26 25 29 35 40 35 35 46 54 61
5 5 5 5 6 6 8 10 10 11 12 16 17 18 18 19 20 24 26 27 28 33 44 52 45 38 35 33 30 27 27 28 27 25 27 36 42 41 42 46 52 64 67
10 8 7 6 6 6 8 9 10 10 12 15 17 19 19 18 18 21 22 24 24 30 38 43 57 59 51 42 37 33 31 32 30 32 36 42 44 43 44 56 64 73 73
13 12 10 9 7 7 7 8 10 9 12 16 19 19 19 19 20 20 19 19 23 22 31 40 40 49 65 68 58 49 41 35 40 42 41 43 45 45 53 59 69 78 86
9 10 11 9 10 9 7 7 9 12 11 16 19 19 19 20 20 21 20 23 25 25 31 34 39 46 50 62 72 76 72 66 63 54 63 67 69 72 87 91 93 96 96
37 24 7 8 8 8 10 11 10 10 14 16 18 19 18 20 21 21 21 24 25 27 31 39 38 46 47 54 64 64 66 69 71 62 59 68 82 93 95 100 97 96 94
46 47 44 20 8 6 10 11 13 13 16 18 21 20 21 21 22 21 21 26 25 29 33 36 37 45 48 50 51 61 74 85 92 84 76 78 66 69 73 82 92 69 56